Time,TemperatureF,DewpointF,PressureIn,WindDirection,WindDirectionDegrees,WindSpeedMPH,WindSpeedGustMPH,Humidity,HourlyPrecipIn,Conditions,Clouds,dailyrainin,SoftwareType,DateUTC
2017-12-14 00:00:00,42.6,21.7,29.86,South,180,3.8,4.5,43,0.00,,,0.00,meteobridge,2017-12-14 05:00:00,
2017-12-14 00:05:00,42.8,20.7,29.86,SW,225,3.1,3.1,41,0.00,,,0.00,meteobridge,2017-12-14 05:05:00,
2017-12-14 00:10:00,42.8,20.1,29.86,SW,225,2.2,5.4,40,0.00,,,0.00,meteobridge,2017-12-14 05:10:00,
2017-12-14 00:16:00,43.0,20.3,29.86,SW,225,3.1,5.4,40,0.00,,,0.00,meteobridge,2017-12-14 05:16:00,
2017-12-14 00:21:00,43.2,19.9,29.86,NW,315,5.4,5.4,39,0.00,,,0.00,meteobridge,2017-12-14 05:21:00,
2017-12-14 00:31:00,43.5,20.1,29.86,SSW,203,6.0,6.0,39,0.00,,,0.00,meteobridge,2017-12-14 05:31:00,
2017-12-14 00:36:00,43.7,20.3,29.86,South,180,4.5,4.5,39,0.00,,,0.00,meteobridge,2017-12-14 05:36:00,
2017-12-14 00:41:00,43.9,19.2,29.86,SW,225,3.8,5.4,37,0.00,,,0.00,meteobridge,2017-12-14 05:41:00,
2017-12-14 00:47:00,44.1,19.4,29.85,SW,225,5.4,5.4,37,0.00,,,0.00,meteobridge,2017-12-14 05:47:00,
2017-12-14 00:52:00,44.1,19.4,29.85,SW,225,4.5,4.5,37,0.00,,,0.00,meteobridge,2017-12-14 05:52:00,
2017-12-14 00:57:00,43.9,19.9,29.85,SW,225,3.1,4.5,38,0.00,,,0.00,meteobridge,2017-12-14 05:57:00,
2017-12-14 01:02:00,43.9,19.9,29.85,SSW,203,5.4,5.4,38,0.00,,,0.00,meteobridge,2017-12-14 06:02:00,
2017-12-14 01:07:00,44.1,19.4,29.85,SW,225,6.0,6.0,37,0.00,,,0.00,meteobridge,2017-12-14 06:07:00,
2017-12-14 01:12:00,44.1,19.4,29.85,South,180,2.2,5.4,37,0.00,,,0.00,meteobridge,2017-12-14 06:12:00,
2017-12-14 01:18:00,43.9,19.9,29.85,SW,225,3.8,5.4,38,0.00,,,0.00,meteobridge,2017-12-14 06:18:00,
2017-12-14 01:28:00,44.1,19.4,29.85,South,180,5.4,5.4,37,0.00,,,0.00,meteobridge,2017-12-14 06:28:00,
2017-12-14 01:39:00,44.2,19.6,29.85,SW,225,5.4,5.4,37,0.00,,,0.00,meteobridge,2017-12-14 06:39:00,
2017-12-14 01:44:00,44.2,20.3,29.85,SW,225,7.6,7.6,38,0.00,,,0.00,meteobridge,2017-12-14 06:44:00,
2017-12-14 01:49:00,44.2,19.6,29.85,South,180,4.5,9.8,37,0.00,,,0.00,meteobridge,2017-12-14 06:49:00,
2017-12-14 01:59:00,44.2,19.6,29.85,SW,225,4.5,5.4,37,0.00,,,0.00,meteobridge,2017-12-14 06:59:00,
2017-12-14 02:05:00,44.2,20.3,29.85,South,180,8.3,9.2,38,0.00,,,0.00,meteobridge,2017-12-14 07:05:00,
2017-12-14 02:10:00,44.2,20.8,29.84,South,180,6.9,7.6,39,0.00,,,0.00,meteobridge,2017-12-14 07:10:00,
2017-12-14 02:15:00,44.2,20.3,29.85,SW,225,8.3,8.3,38,0.00,,,0.00,meteobridge,2017-12-14 07:15:00,
2017-12-14 02:25:00,44.1,20.7,29.85,SW,225,4.5,5.4,39,0.00,,,0.00,meteobridge,2017-12-14 07:25:00,
2017-12-14 02:30:00,44.1,20.7,29.84,South,180,5.4,5.4,39,0.00,,,0.00,meteobridge,2017-12-14 07:30:00,
2017-12-14 02:33:00,43.9,20.5,29.85,South,180,7.6,7.6,39,0.00,,,0.00,meteobridge,2017-12-14 07:33:00,
2017-12-14 02:36:00,43.9,20.5,29.84,South,180,8.3,8.3,39,0.00,,,0.00,meteobridge,2017-12-14 07:36:00,
2017-12-14 02:41:00,44.1,20.7,29.84,SW,225,5.4,6.0,39,0.00,,,0.00,meteobridge,2017-12-14 07:41:00,
2017-12-14 02:50:00,43.7,20.3,29.84,SW,225,6.0,8.3,39,0.00,,,0.00,meteobridge,2017-12-14 07:50:00,
2017-12-14 03:00:00,43.7,21.0,29.83,South,180,6.0,6.0,40,0.00,,,0.00,meteobridge,2017-12-14 08:00:00,
2017-12-14 03:05:00,43.7,21.0,29.83,South,180,6.0,6.0,40,0.00,,,0.00,meteobridge,2017-12-14 08:05:00,
2017-12-14 03:15:00,43.5,21.4,29.83,South,180,5.4,5.4,41,0.00,,,0.00,meteobridge,2017-12-14 08:15:00,
2017-12-14 03:31:00,43.3,21.2,29.84,South,180,6.9,6.9,41,0.00,,,0.00,meteobridge,2017-12-14 08:31:00,
2017-12-14 03:36:00,43.3,21.2,29.83,SW,225,6.9,8.3,41,0.00,,,0.00,meteobridge,2017-12-14 08:36:00,
2017-12-14 03:41:00,43.2,21.6,29.83,SW,225,6.9,9.2,42,0.00,,,0.00,meteobridge,2017-12-14 08:41:00,
2017-12-14 03:46:00,43.2,21.6,29.83,South,180,6.0,7.6,42,0.00,,,0.00,meteobridge,2017-12-14 08:46:00,
2017-12-14 03:52:00,43.2,21.6,29.83,SW,225,4.5,7.6,42,0.00,,,0.00,meteobridge,2017-12-14 08:52:00,
2017-12-14 03:57:00,43.0,22.1,29.83,SW,225,6.0,6.0,43,0.00,,,0.00,meteobridge,2017-12-14 08:57:00,
2017-12-14 04:02:00,43.0,22.1,29.83,SW,225,5.4,5.4,43,0.00,,,0.00,meteobridge,2017-12-14 09:02:00,
2017-12-14 04:04:00,42.8,21.9,29.83,SW,225,3.8,4.5,43,0.00,,,0.00,meteobridge,2017-12-14 09:04:00,
2017-12-14 04:09:00,42.6,22.8,29.83,NW,315,6.9,7.6,45,0.00,,,0.00,meteobridge,2017-12-14 09:09:00,
2017-12-14 04:15:00,42.6,22.8,29.83,South,180,4.5,6.0,45,0.00,,,0.00,meteobridge,2017-12-14 09:15:00,
2017-12-14 04:20:00,42.6,22.8,29.84,South,180,7.6,7.6,45,0.00,,,0.00,meteobridge,2017-12-14 09:20:00,
2017-12-14 04:25:00,42.6,23.4,29.83,South,180,4.5,6.0,46,0.00,,,0.00,meteobridge,2017-12-14 09:25:00,
2017-12-14 04:30:00,42.4,23.2,29.84,SW,225,4.5,4.5,46,0.00,,,0.00,meteobridge,2017-12-14 09:30:00,
2017-12-14 04:35:00,42.4,23.7,29.83,SW,225,5.4,5.4,47,0.00,,,0.00,meteobridge,2017-12-14 09:35:00,
2017-12-14 04:40:00,42.3,23.9,29.83,SW,225,6.0,6.0,48,0.00,,,0.00,meteobridge,2017-12-14 09:40:00,
2017-12-14 04:44:00,42.4,24.1,29.83,SW,225,6.9,6.9,48,0.00,,,0.00,meteobridge,2017-12-14 09:44:00,
2017-12-14 04:49:00,42.4,24.1,29.84,SW,225,5.4,5.4,48,0.00,,,0.00,meteobridge,2017-12-14 09:49:00,
2017-12-14 04:54:00,41.2,22.5,29.83,SW,225,4.5,5.4,47,0.00,,,0.00,meteobridge,2017-12-14 09:54:00,
2017-12-14 04:59:00,41.2,21.9,29.84,South,180,3.1,5.4,46,0.00,,,0.00,meteobridge,2017-12-14 09:59:00,
2017-12-14 05:04:00,41.2,21.9,29.84,South,180,3.1,3.1,46,0.00,,,0.00,meteobridge,2017-12-14 10:04:00,
2017-12-14 05:10:00,41.2,23.0,29.85,South,180,3.8,6.9,48,0.00,,,0.00,meteobridge,2017-12-14 10:10:00,
2017-12-14 05:15:00,41.4,22.6,29.85,SE,135,6.0,6.0,47,0.00,,,0.00,meteobridge,2017-12-14 10:15:00,
2017-12-14 05:20:00,41.2,23.0,29.84,South,180,6.0,6.0,48,0.00,,,0.00,meteobridge,2017-12-14 10:20:00,
2017-12-14 05:25:00,41.2,23.0,29.85,South,180,3.1,3.1,48,0.00,,,0.00,meteobridge,2017-12-14 10:25:00,
2017-12-14 05:30:00,41.2,23.5,29.84,SSW,203,5.4,6.9,49,0.00,,,0.00,meteobridge,2017-12-14 10:30:00,
2017-12-14 05:35:00,41.0,23.7,29.85,SSW,203,5.4,6.0,50,0.00,,,0.00,meteobridge,2017-12-14 10:35:00,
2017-12-14 05:41:00,41.0,23.7,29.85,South,180,5.4,6.0,50,0.00,,,0.00,meteobridge,2017-12-14 10:41:00,
2017-12-14 05:46:00,41.0,23.7,29.85,South,180,6.0,6.0,50,0.00,,,0.00,meteobridge,2017-12-14 10:46:00,
2017-12-14 05:51:00,41.0,23.7,29.86,South,180,3.1,3.1,50,0.00,,,0.00,meteobridge,2017-12-14 10:51:00,
2017-12-14 05:56:00,40.8,24.1,29.85,South,180,3.8,5.4,51,0.00,,,0.00,meteobridge,2017-12-14 10:56:00,
2017-12-14 06:01:00,40.8,24.1,29.86,South,180,3.8,3.8,51,0.00,,,0.00,meteobridge,2017-12-14 11:01:00,
2017-12-14 06:06:00,40.6,24.4,29.85,South,180,6.9,6.9,52,0.00,,,0.00,meteobridge,2017-12-14 11:06:00,
2017-12-14 06:12:00,40.6,24.4,29.87,South,180,3.8,3.8,52,0.00,,,0.00,meteobridge,2017-12-14 11:12:00,
2017-12-14 06:17:00,40.3,24.1,29.86,South,180,3.1,3.8,52,0.00,,,0.00,meteobridge,2017-12-14 11:17:00,
2017-12-14 06:22:00,40.1,23.9,29.87,South,180,4.5,4.5,52,0.00,,,0.00,meteobridge,2017-12-14 11:22:00,
2017-12-14 06:24:00,40.1,23.9,29.86,South,180,5.4,5.4,52,0.00,,,0.00,meteobridge,2017-12-14 11:24:00,
2017-12-14 06:29:00,39.9,24.3,29.86,SE,135,5.4,5.4,53,0.00,,,0.00,meteobridge,2017-12-14 11:29:00,
2017-12-14 06:30:00,39.9,24.3,29.87,South,180,2.2,5.4,53,0.00,,,0.00,meteobridge,2017-12-14 11:30:00,
2017-12-14 06:35:00,39.7,24.1,29.87,South,180,3.8,4.5,53,0.00,,,0.00,meteobridge,2017-12-14 11:35:00,
2017-12-14 06:40:00,39.7,24.4,29.87,South,180,3.8,5.4,54,0.00,,,0.00,meteobridge,2017-12-14 11:40:00,
2017-12-14 06:45:00,39.6,24.3,29.88,South,180,2.2,3.8,54,0.00,,,0.00,meteobridge,2017-12-14 11:45:00,
2017-12-14 06:50:00,39.4,24.1,29.87,South,180,3.1,4.5,54,0.00,,,0.00,meteobridge,2017-12-14 11:50:00,
2017-12-14 06:56:00,39.4,24.1,29.87,South,180,5.4,5.4,54,0.00,,,0.00,meteobridge,2017-12-14 11:56:00,
2017-12-14 07:01:00,39.4,24.1,29.88,South,180,3.8,3.8,54,0.00,,,0.00,meteobridge,2017-12-14 12:01:00,
2017-12-14 07:06:00,39.4,24.1,29.88,South,180,3.8,3.8,54,0.00,,,0.00,meteobridge,2017-12-14 12:06:00,
2017-12-14 07:09:00,39.0,24.6,29.88,SSW,203,2.2,2.2,56,0.00,,,0.00,meteobridge,2017-12-14 12:09:00,
2017-12-14 07:15:00,39.0,24.6,29.88,South,180,2.2,2.2,56,0.00,,,0.00,meteobridge,2017-12-14 12:15:00,
2017-12-14 07:19:00,38.8,25.0,29.88,South,180,2.2,3.8,57,0.00,,,0.00,meteobridge,2017-12-14 12:19:00,
2017-12-14 07:20:00,38.8,25.0,29.88,South,180,2.2,3.8,57,0.00,,,0.00,meteobridge,2017-12-14 12:20:00,
2017-12-14 07:25:00,38.8,25.0,29.88,South,180,3.1,4.5,57,0.00,,,0.00,meteobridge,2017-12-14 12:25:00,
2017-12-14 07:30:00,39.0,25.2,29.88,South,180,3.1,5.4,57,0.00,,,0.00,meteobridge,2017-12-14 12:30:00,
2017-12-14 07:35:00,39.0,25.5,29.89,South,180,2.2,3.1,58,0.00,,,0.00,meteobridge,2017-12-14 12:35:00,
2017-12-14 07:40:00,39.0,25.5,29.88,SW,225,2.2,3.8,58,0.00,,,0.00,meteobridge,2017-12-14 12:40:00,
2017-12-14 07:46:00,39.0,25.5,29.89,SE,135,1.6,2.2,58,0.00,,,0.00,meteobridge,2017-12-14 12:46:00,
2017-12-14 07:51:00,39.0,25.5,29.89,NW,315,1.6,5.4,58,0.00,,,0.00,meteobridge,2017-12-14 12:51:00,
2017-12-14 07:56:00,39.0,25.5,29.89,North,0,0.7,0.7,58,0.00,,,0.00,meteobridge,2017-12-14 12:56:00,
2017-12-14 08:01:00,38.8,25.3,29.90,SW,225,2.2,2.2,58,0.00,,,0.00,meteobridge,2017-12-14 13:01:00,
2017-12-14 08:06:00,38.8,25.7,29.90,NW,315,0.0,0.7,59,0.00,,,0.00,meteobridge,2017-12-14 13:06:00,
2017-12-14 08:11:00,38.7,26.1,29.91,North,0,1.6,2.2,60,0.00,,,0.00,meteobridge,2017-12-14 13:11:00,
2017-12-14 08:17:00,39.0,26.8,29.91,South,180,2.2,2.2,61,0.00,,,0.00,meteobridge,2017-12-14 13:17:00,
2017-12-14 08:22:00,39.6,27.1,29.91,South,180,3.8,4.5,61,0.00,,,0.00,meteobridge,2017-12-14 13:22:00,
2017-12-14 08:27:00,40.5,27.3,29.91,South,180,1.6,2.2,59,0.00,,,0.00,meteobridge,2017-12-14 13:27:00,
2017-12-14 08:32:00,40.8,27.7,29.91,SSE,158,6.9,6.9,59,0.00,,,0.00,meteobridge,2017-12-14 13:32:00,
2017-12-14 08:37:00,41.4,27.3,29.91,SSW,203,5.4,5.4,57,0.00,,,0.00,meteobridge,2017-12-14 13:37:00,
2017-12-14 08:42:00,41.5,27.0,29.91,NW,315,0.7,1.6,56,0.00,,,0.00,meteobridge,2017-12-14 13:42:00,
2017-12-14 08:48:00,41.9,27.3,29.91,South,180,2.2,2.2,56,0.00,,,0.00,meteobridge,2017-12-14 13:48:00,
2017-12-14 08:53:00,43.5,28.4,29.91,SW,225,3.1,3.8,55,0.00,,,0.00,meteobridge,2017-12-14 13:53:00,